METAR Formatted Surface Weather Observation
Issued by NWS

Home | Current Version | Previous Version | Text Only | Print | Product List | Glossary On
Versions: 1 2 3 4 5 6 7 8 9 10 11 12 13 14 15 16 17 18 19 20 21 22 23 24 25 26 27 28 29 30 31
000
SAUS46 KPQR 301634
MTRNUW
SPECI KNUW 301633Z 24009KT 10SM FEW013 BKN021 BKN050 15/13 A3001 RMK
AO2 T01500128 $



USA.gov is the U.S. government's official web portal to all federal, state and local government web resources and services.